ONEWEB-0238 (48784 NORAD) Tracking and Keplerian Element Data

This shows tracking and keplerian element data for the satellite.

Feedback or suggestion? Click here.




ElementValue
Catalog48784
NameONEWEB-0238
Epoch Orbit352
Epoch Day214.91667824
Epoch Year2021
RAAN254.7252
Inclination87.5922
Eccentricity0.0011374
Argument of Perigee47.9094
Mean Anonmoly226.5919
Mean Motion14.34862031
Decay Rate-0.01413191
L11 48784U 21045T 21214.91667824 -.01413191 00000-0 -53228+0 0 9997
L22 48784 87.5922 254.7252 0011374 47.9094 226.5919 14.34862031 3528

Live tracking and technical data element details for ONEWEB-0238 (NORAD 48784). ONEWEB-0238 can be tracked NOW for your location showing map with azimuth and elevation plus other details from your city location.

Track the satellite on the map from your city or location and see movement details for azimuth, elevation, latitude, longitude, range, height, and movement on the map or in text.







IsCatalogInMostPopularTable: catalog: 48784, numindb: 19
Update: records affected: 1



GetName: 48784 ONEWEB-0238

Hit Count: updated at: Wed, 04 Aug 2021 00:01:39 GMT